Terminal Aerodrome Forecast
Issued by NWS Quad Cities IA IL

Home | Current Version | Previous Version | Text Only | Print | Product List | Glossary On
Versions: 1 2 3 4 5 6 7 8 9 10 11 12 13 14 15 16 17 18
000
FTUS43 KDVN 241849 AAA
TAFDBQ
TAF AMD
KDBQ 241849Z 2419/2518 22008KT P6SM SCT018
     FM242000 20007KT P6SM SCT025 BKN035
     FM250300 34006KT P6SM SCT015 BKN025 PROB30 2506/2510 5SM -TSRA
      BR OVC020CB=

USA.gov is the U.S. government's official web portal to all federal, state and local government web resources and services.